Weather observations for the past three days for
Broomfield / Jeffco
| Date | Time (mdt) | Wind (mph) | Vis. (mi.) | Weather | Sky Cond. | Temperature (ºF) | Relative Humidity | Wind Chill (°F) | Heat Index (°F) | Pressure | Precipitation (in) | ||||||
|---|---|---|---|---|---|---|---|---|---|---|---|---|---|---|---|---|---|
| Air | Dwpt | 6 hour | altimeter (in) | sea level (mb) | 1 hr | 3 hr | 6 hr | ||||||||||
| Max. | Min. | ||||||||||||||||
| 06 | 00:55 | N 5 | 1.00 | Snow | OVC003 | 32 | 32 | 100% | 28 | 30.04 | 0.0 | ||||||
| 06 | 00:35 | N 6 | 1.25 | Light Snow | OVC003 | 32 | 32 | 100% | 27 | 30.04 | 0.0 | ||||||
| 06 | 00:15 | N 6 | 1.25 | Light Snow | OVC003 | 32 | 32 | 100% | 27 | 30.03 | 0.0 | ||||||
| 05 | 23:55 | N 5 | 1.50 | Light Snow | OVC003 | 32 | 32 | 100% | 28 | 30.03 | 0.0 | ||||||
| 05 | 23:35 | N 3 | 2.00 | Light Snow | OVC003 | 32 | 32 | 100% | 30.03 | 0.0 | |||||||
| 05 | 23:15 | N 5 | 1.25 | Light Snow | BKN003 OVC007 | 32 | 32 | 100% | 28 | 30.03 | 0.0 | ||||||
| 05 | 22:35 | N 5 | 1.00 | Snow | OVC003 | 32 | 32 | 100% | 28 | 30.02 | 0.0 | ||||||
| 05 | 22:15 | N 6 | 1.25 | Snow | OVC003 | 32 | 32 | 100% | 27 | 30.02 | 0.0 | ||||||
| 05 | 21:55 | N 7 | 1.25 | Snow | OVC003 | 32 | 32 | 100% | 26 | 30.01 | 0.0 | ||||||
| 05 | 21:35 | N 8 | 1.50 | Light Snow | OVC003 | 32 | 32 | 100% | 25 | 30.01 | 0.0 | ||||||
| 05 | 21:15 | N 7 | 1.25 | Snow | OVC003 | 32 | 32 | 100% | 26 | 30 | 0.0 | ||||||
| 05 | 20:55 | N 7 | 1.50 | Light Snow | BKN003 BKN007 OVC018 | 32 | 32 | 100% | 26 | 29.99 | 0.0 | ||||||
| 05 | 20:35 | N 8 | 1.25 | Snow | BKN003 OVC007 | 32 | 32 | 100% | 25 | 29.99 | 0.0 | ||||||
| 05 | 20:15 | N 8 | 1.50 | Light Snow | OVC003 | 32 | 32 | 100% | 25 | 29.97 | 0.0 | ||||||
| 05 | 19:45 | N 12 | 1.00 | Light Snow | OVC005 | 33.8 | 32 | 93% | 26 | 29.97 | 0.0 | ||||||
| 05 | 18:48 | N 15 | 0.75 | Light Snow Fog/Mist | OVC005 | 33.8 | 33.8 | 100% | 25 | 29.95 | 0.0 | ||||||
| 05 | 17:52 | N 15 | 0.50 | Light Snow Fog | OVC003 | 33.8 | 32 | 93% | 25 | 29.95 | 0.0 | ||||||
| 05 | 16:45 | N 17 | 0.50 | Snow Fog | OVC003 | 33.8 | 33.8 | 100% | 24 | 29.93 | 0.0 | ||||||
| 05 | 15:45 | N 16 | 0.75 | Light Snow Fog/Mist | OVC006 | 35.6 | 33.8 | 93% | 27 | 29.91 | 0.0 | ||||||
| 05 | 14:45 | N 8 | 4.00 | Light Rain Fog/Mist | OVC006 | 39.2 | 37.4 | 93% | 34 | 29.93 | 0.0 | ||||||
| 05 | 13:48 | NE 10 | 4.00 | Light Rain | OVC007 | 37.4 | 37.4 | 100% | 31 | 29.94 | 0.0 | ||||||
| 05 | 12:48 | NE 9 | 4.00 | Light Rain | OVC007 | 39.2 | 37.4 | 93% | 34 | 29.95 | 0.0 | ||||||
| 05 | 11:47 | N 7 | 3.00 | Light Rain | OVC004 | 37.4 | 35.6 | 93% | 33 | 29.97 | 0.0 | ||||||
| 05 | 10:47 | N 6 | 5.00 | Fog/Mist | OVC004 | 35.6 | 35.6 | 100% | 31 | 29.98 | 0.0 | ||||||
| 05 | 09:48 | N 8 | 2.00 | Light Drizzle | OVC006 | 35.6 | 35.6 | 100% | 30 | 29.99 | 0.0 | ||||||
| 05 | 08:47 | NW 6 | 6.00 | Light Drizzle | OVC008 | 35.6 | 35.6 | 100% | 31 | 30 | 0.0 | ||||||
| 05 | 07:45 | N 9 | 2.00 | Light Snow | OVC003 | 33.8 | 33.8 | 100% | 27 | 30 | 0.0 | ||||||
| 05 | 06:45 | N 13 | 2.00 | Light Snow | OVC003 | 33.8 | 33.8 | 100% | 25 | 29.97 | 0.0 | ||||||
| 05 | 06:15 | N 10 | 3.00 | Light Snow | BKN003 OVC018 | 33.8 | 33.8 | 100% | 26 | 29.96 | 0.0 | ||||||
| 05 | 05:55 | N 13 | 3.00 | Light Rain | BKN003 OVC016 | 33.8 | 33.8 | 100% | 25 | 29.96 | 0.0 | ||||||
| 05 | 05:35 | N 13 | 2.00 | Light Rain | OVC003 | 35.6 | 33.8 | 93% | 28 | 29.96 | 0.0 | ||||||
| 05 | 05:15 | N 15 | 2.50 | Light Rain | BKN005 BKN008 OVC018 | 35.6 | 35.6 | 100% | 27 | 29.95 | 0.0 | ||||||
| 05 | 04:55 | N 17 G 23 | 10.00 | Light Rain | SCT008 OVC016 | 37.4 | 35.6 | 93% | 29 | 29.94 | 0.0 | ||||||
| 05 | 04:35 | N 12 | 10.00 | Light Rain | SCT007 BKN010 OVC019 | 39.2 | 37.4 | 93% | 33 | 29.93 | 0.0 | ||||||
| 05 | 04:15 | N 17 G 22 | 10.00 | Light Rain | OVC008 | 39.2 | 37.4 | 93% | 31 | 29.92 | 0.0 | ||||||
| 05 | 03:55 | N 17 G 21 | 10.00 | Unknown Precip | OVC004 | 41 | 37.4 | 87% | 33 | 29.91 | 0.0 | ||||||
| 05 | 03:35 | N 15 | 10.00 | Light Rain | OVC004 | 41 | 39.2 | 93% | 34 | 29.91 | 0.0 | ||||||
| 05 | 03:15 | N 18 | 10.00 | Overcast | OVC004 | 41 | 41 | 100% | 33 | 29.91 | 0.0 | ||||||
| 05 | 02:55 | N 17 G 23 | 10.00 | Overcast | OVC004 | 42.8 | 41 | 93% | 35 | 29.9 | 0.0 | ||||||
| 05 | 02:35 | N 17 | 10.00 | Light Drizzle | OVC006 | 42.8 | 41 | 93% | 35 | 29.9 | 0.0 | ||||||
| 05 | 02:15 | N 16 | 10.00 | Light Rain | BKN006 OVC015 | 42.8 | 41 | 93% | 36 | 29.91 | 0.0 | ||||||
| 05 | 01:55 | N 12 | 10.00 | Light Rain | SCT008 BKN025 OVC032 | 46.4 | 44.6 | 93% | 42 | 29.9 | 0.0 | ||||||
| 05 | 01:35 | Calm | 10.00 | Overcast | SCT033 OVC040 | 46.4 | 44.6 | 93% | 29.91 | 0.0 | |||||||
| 05 | 01:15 | Calm | 10.00 | Overcast | OVC040 | 46.4 | 42.8 | 87% | 29.9 | 0.0 | |||||||
| 05 | 00:55 | S 3 | 10.00 | Overcast | OVC042 | 46.4 | 42.8 | 87% | 29.9 | 0.0 | |||||||
| 05 | 00:35 | Calm | 10.00 | Light Rain | SCT040 BKN048 OVC065 | 46.4 | 42.8 | 87% | 29.9 | 0.0 | |||||||
| 05 | 00:15 | Calm | 10.00 | Overcast | SCT050 OVC065 | 46.4 | 44.6 | 93% | 29.9 | 0.0 | |||||||
| 04 | 23:35 | S 5 | 10.00 | Fair | CLR | 46.4 | 42.8 | 87% | 45 | 29.9 | 0.0 | ||||||
| 04 | 23:15 | S 7 | 10.00 | Partly Cloudy | SCT060 | 46.4 | 42.8 | 87% | 43 | 29.9 | 0.0 | ||||||
| 04 | 22:55 | S 3 | 10.00 | Mostly Cloudy | SCT048 SCT060 BKN100 | 46.4 | 42.8 | 87% | 29.9 | 0.0 | |||||||
| 04 | 22:15 | W 7 | 10.00 | Light Rain | BKN050 OVC070 | 46.4 | 42.8 | 87% | 43 | 29.91 | 0.0 | ||||||
| 04 | 21:55 | SW 7 | 10.00 | Light Rain | BKN050 OVC055 | 46.4 | 42.8 | 87% | 43 | 29.91 | 0.0 | ||||||
| 04 | 21:35 | W 10 | 10.00 | Light Rain | OVC050 | 48.2 | 44.6 | 87% | 44 | 29.91 | 0.0 | ||||||
| 04 | 21:15 | W 15 G 20 | 7.00 | Light Rain | BKN044 OVC050 | 48.2 | 44.6 | 87% | 43 | 29.9 | 0.0 | ||||||
| 04 | 20:55 | NW 13 | 10.00 | Rain | BKN047 OVC050 | 50 | 42.8 | 76% | 46 | 29.89 | 0.0 | ||||||
| 04 | 20:35 | NW 10 | 10.00 | Overcast | OVC060 | 50 | 42.8 | 76% | 46 | 29.88 | 0.0 | ||||||
| 04 | 20:15 | N 10 G 17 | 10.00 | Light Rain | OVC060 | 50 | 42.8 | 76% | 46 | 29.87 | 0.0 | ||||||
| 04 | 19:45 | N 16 G 25 | 10.00 | Showers in Vicinity | BKN050 OVC070 | 51.8 | 42.8 | 72% | 29.87 | 0.0 | |||||||
| 04 | 18:50 | N 9 | 10.00 | Showers in Vicinity | OVC070 | 57.2 | 35.6 | 44% | 29.86 | 0.0 | |||||||
| 04 | 17:46 | NW 12 | 10.00 | Showers in Vicinity | OVC090 | 60.8 | 33.8 | 36% | 29.84 | 0.0 | |||||||
| 04 | 16:46 | NW 12 | 10.00 | Thunderstorm in Vicinity | BKN060 OVC080 | 60.8 | 32 | 34% | 29.84 | 0.0 | |||||||
| 04 | 15:46 | N 26 G 32 | 10.00 | Thunderstorm in Vicinity and Windy | BKN120 | 62.6 | 33.8 | 34% | 29.8 | 0.0 | |||||||
| 04 | 14:50 | SE 7 | 10.00 | Light Rain | SCT048 OVC100 | 64.4 | 32 | 30% | 29.81 | 0.0 | |||||||
| 04 | 13:55 | SE 15 G 36 | 10.00 | Light Rain | SCT048 OVC100 | 59 | 35.6 | 42% | 29.82 | 0.0 | |||||||
| 04 | 12:50 | NW 17 G 25 | 10.00 | Mostly Cloudy | BKN120 | 71.6 | 23 | 16% | 29.82 | 0.0 | |||||||
| 04 | 11:45 | NW 17 G 25 | 10.00 | Mostly Cloudy | BKN120 | 69.8 | 24.8 | 18% | 29.82 | 0.0 | |||||||
| 04 | 10:47 | W 17 G 24 | 10.00 | Partly Cloudy | SCT120 | 69.8 | 24.8 | 18% | 29.83 | 0.0 | |||||||
| 04 | 09:47 | W 15 G 25 | 10.00 | Partly Cloudy | SCT120 | 64.4 | 24.8 | 22% | 29.85 | 0.0 | |||||||
| 04 | 08:45 | W 17 | 10.00 | Partly Cloudy | SCT120 | 64.4 | 24.8 | 22% | 29.86 | 0.0 | |||||||
| 04 | 07:50 | W 3 | 10.00 | Fair | CLR | 57.2 | 23 | 27% | 29.86 | 0.0 | |||||||
| 04 | 06:47 | Calm | 10.00 | Fair | CLR | 53.6 | 19.4 | 26% | 29.84 | 0.0 | |||||||
| 04 | 06:15 | Calm | 10.00 | Fair | CLR | 50 | 21.2 | 32% | 29.83 | 0.0 | |||||||
| 04 | 05:55 | Calm | 10.00 | Fair | CLR | 50 | 21.2 | 32% | 29.83 | 0.0 | |||||||
| 04 | 05:35 | W 3 | 10.00 | Fair | CLR | 46.4 | 21.2 | 37% | 29.84 | 0.0 | |||||||
| 04 | 05:15 | Calm | 10.00 | Fair | CLR | 50 | 21.2 | 32% | 29.84 | 0.0 | |||||||
| 04 | 04:55 | Calm | 10.00 | Fair | CLR | 50 | 23 | 35% | 29.84 | 0.0 | |||||||
| 04 | 04:35 | Calm | 10.00 | Fair | CLR | 51.8 | 23 | 32% | 29.85 | 0.0 | |||||||
| 04 | 04:15 | Calm | 10.00 | Fair | CLR | 51.8 | 24.8 | 35% | 29.86 | 0.0 | |||||||
| 04 | 03:55 | Calm | 10.00 | Fair | CLR | 51.8 | 26.6 | 38% | 29.86 | 0.0 | |||||||
| 04 | 03:35 | Calm | 10.00 | Fair | CLR | 51.8 | 23 | 32% | 29.86 | 0.0 | |||||||
| 04 | 03:15 | Calm | 10.00 | Fair | CLR | 50 | 23 | 35% | 29.87 | 0.0 | |||||||
| 04 | 02:55 | SW 3 | 10.00 | Fair | CLR | 48.2 | 23 | 37% | 29.87 | 0.0 | |||||||
| 04 | 02:35 | Calm | 10.00 | Fair | CLR | 50 | 23 | 35% | 29.87 | 0.0 | |||||||
| 04 | 02:15 | W 3 | 10.00 | Fair | CLR | 48.2 | 24.8 | 40% | 29.87 | 0.0 | |||||||
| 04 | 01:55 | Calm | 10.00 | Fair | CLR | 51.8 | 26.6 | 38% | 29.88 | 0.0 | |||||||
| 04 | 01:35 | NW 3 | 10.00 | Fair | CLR | 53.6 | 24.8 | 33% | 29.88 | 0.0 | |||||||
| 04 | 01:15 | N 10 | 10.00 | Fair | CLR | 53.6 | 26.6 | 35% | 29.89 | 0.0 | |||||||
| 04 | 00:55 | N 14 | 10.00 | Fair | CLR | 55.4 | 26.6 | 33% | 29.89 | 0.0 | |||||||
| 04 | 00:35 | N 14 | 10.00 | Fair | CLR | 55.4 | 26.6 | 33% | 29.89 | 0.0 | |||||||
| 04 | 00:15 | N 17 | 10.00 | Fair | CLR | 55.4 | 24.8 | 31% | 29.89 | 0.0 | |||||||
| 03 | 23:55 | NW 15 | 10.00 | Fair | CLR | 59 | 23 | 25% | 29.89 | 0.0 | |||||||
| 03 | 23:35 | NW 10 | 10.00 | Fair | CLR | 59 | 23 | 25% | 29.89 | 0.0 | |||||||
| 03 | 23:15 | W 14 | 10.00 | Fair | CLR | 55.4 | 23 | 28% | 29.89 | 0.0 | |||||||
| 03 | 22:55 | W 10 | 10.00 | Fair | CLR | 57.2 | 23 | 27% | 29.89 | 0.0 | |||||||
| 03 | 22:35 | W 10 | 10.00 | Fair | CLR | 59 | 23 | 25% | 29.89 | 0.0 | |||||||
| 03 | 22:15 | W 10 | 10.00 | Fair | CLR | 59 | 24.8 | 27% | 29.9 | 0.0 | |||||||
| 03 | 21:55 | W 12 | 10.00 | Fair | CLR | 60.8 | 24.8 | 25% | 29.9 | 0.0 | |||||||
| 03 | 21:35 | SW 6 | 10.00 | Fair | CLR | 62.6 | 23 | 22% | 29.91 | 0.0 | |||||||
| 03 | 21:15 | S 5 | 10.00 | Fair | CLR | 62.6 | 24.8 | 24% | 29.91 | 0.0 | |||||||
| 03 | 20:55 | SW 6 | 10.00 | Fair | CLR | 62.6 | 26.6 | 25% | 29.91 | 0.0 | |||||||
| 03 | 20:35 | SW 10 | 10.00 | Fair | CLR | 64.4 | 24.8 | 22% | 29.9 | 0.0 | |||||||
| 03 | 20:15 | W 14 G 17 | 10.00 | Fair | CLR | 64.4 | 21.2 | 19% | 29.9 | 0.0 | |||||||
| 03 | 18:52 | NW 18 G 22 | 10.00 | Mostly Cloudy | SCT045 BKN110 | 66.2 | 24.8 | 21% | 29.91 | 0.0 | |||||||
| 03 | 17:52 | NW 18 G 22 | 10.00 | Mostly Cloudy | SCT045 BKN110 | 68 | 24.8 | 20% | 29.93 | 0.0 | |||||||
| 03 | 16:48 | N 7 | 10.00 | Mostly Cloudy | SCT095 BKN120 | 69.8 | 21.2 | 16% | 29.92 | 0.0 | |||||||
| 03 | 16:47 | NW 9 | 10.00 | Mostly Cloudy | SCT080 BKN110 | 71.6 | 17.6 | 13% | 29.93 | 0.0 | |||||||
| 03 | 14:51 | W 9 | 10.00 | Partly Cloudy | SCT120 | 71.6 | 15.8 | 12% | 29.94 | 0.0 | |||||||
| 03 | 12:46 | NE 10 G 18 | 10.00 | Fair | CLR | 71.6 | 15.8 | 12% | 29.98 | 0.0 | |||||||
| 03 | 11:55 | W 8 G 20 | 10.00 | Fair | CLR | 69.8 | 15.8 | 12% | 30.02 | 0.0 | |||||||
| 03 | 09:50 | W 18 G 25 | 10.00 | Fair | CLR | 66.2 | 17.6 | 15% | 30.05 | 0.0 | |||||||
| 03 | 08:53 | W 20 | 10.00 | Fair | CLR | 64.4 | 17.6 | 16% | 30.06 | 0.0 | |||||||
| 03 | 08:04 | W 24 G 30 | 10.00 | Fair and Breezy | CLR | 60.8 | 15.8 | 17% | 30.05 | 0.0 | |||||||
| 03 | 07:45 | W 7 G 17 | 10.00 | Fair | CLR | 60.8 | 15.8 | 17% | 30.06 | 0.0 | |||||||
| 03 | 06:45 | SW 9 | 10.00 | Fair | CLR | 55.4 | 19.4 | 24% | 30.04 | 0.0 | |||||||
| 03 | 06:15 | SW 7 | 10.00 | Fair | CLR | 51.8 | 19.4 | 28% | 30.04 | 0.0 | |||||||
| 03 | 05:55 | W 6 | 10.00 | Fair | CLR | 53.6 | 19.4 | 26% | 30.04 | 0.0 | |||||||
| 03 | 05:35 | SW 7 | 10.00 | Fair | CLR | 51.8 | 21.2 | 30% | 30.04 | 0.0 | |||||||
| 03 | 05:15 | W 7 | 10.00 | Fair | CLR | 51.8 | 21.2 | 30% | 30.03 | 0.0 | |||||||
| 03 | 04:55 | W 8 | 10.00 | Fair | CLR | 50 | 21.2 | 32% | 47 | 30.04 | 0.0 | ||||||
| 03 | 04:35 | W 9 | 10.00 | Fair | CLR | 50 | 21.2 | 32% | 47 | 30.04 | 0.0 | ||||||
| 03 | 04:15 | W 10 | 10.00 | Fair | CLR | 50 | 21.2 | 32% | 46 | 30.04 | 0.0 | ||||||
| 03 | 03:55 | W 9 | 10.00 | Fair | CLR | 50 | 21.2 | 32% | 47 | 30.04 | 0.0 | ||||||
| 03 | 03:35 | W 8 | 10.00 | Fair | CLR | 51.8 | 21.2 | 30% | 30.04 | 0.0 | |||||||
| 03 | 03:15 | W 10 | 10.00 | Fair | CLR | 51.8 | 21.2 | 30% | 30.05 | 0.0 | |||||||
| 03 | 02:55 | W 10 | 10.00 | Fair | CLR | 50 | 21.2 | 32% | 46 | 30.04 | 0.0 | ||||||
| 03 | 02:35 | W 14 | 10.00 | Fair | CLR | 51.8 | 21.2 | 30% | 30.04 | 0.0 | |||||||
| 03 | 02:15 | W 18 | 10.00 | Fair | CLR | 55.4 | 19.4 | 24% | 30.04 | 0.0 | |||||||
| 03 | 01:55 | SW 5 | 10.00 | Fair | CLR | 50 | 15.8 | 26% | 49 | 30.05 | 0.0 | ||||||
| 03 | 01:35 | W 13 | 10.00 | Fair | CLR | 53.6 | 17.6 | 24% | 30.05 | 0.0 | |||||||
| 03 | 01:15 | W 9 | 10.00 | Fair | CLR | 51.8 | 10.4 | 19% | 30.06 | 0.0 | |||||||
| Date | Time (mdt) | Wind (mph) | Vis. (mi.) | Weather | Sky Cond. | Air | Dwpt | Max. | Min. | Relative Humidity | Wind Chill (°F) | Heat Index (°F) | altimeter (in) | sea level (mb) | 1 hr | 3 hr | 6 hr |
| 6 hour | |||||||||||||||||
| Temperature (ºF) | Pressure | Precipitation (in) | |||||||||||||||